Regional Weather Roundup
Issued by NWS Wakefield, VA

Home | Current Version | Previous Version | Graphics & Text | Print | Product List | Glossary On
Versions: 1 2 3 4 5 6 7 8 9 10 11 12 13 14 15 16 17 18 19 20 21 22 23 24 25 26 27 28 29 30 31 32 33 34 35 36 37 38 39 40 41 42 43 44 45 46 47 48
000
ASUS41 KAKQ 020310
RWRAKQ

REGIONAL WEATHER ROUNDUP
NATIONAL WEATHER SERVICE WAKEFIELD VA
1100 PM EDT WED OCT 01 2014

Note: "fair" indicates few or no clouds below 12,000 feet with no
significant weather and/or obstructions to visibility. * = Denotes
station may not report precipitation (e.g., rain,snow,etc.),
thunder or fog.

VAZ042-051-052>054-056-020400-
NORTHERN VIRGINIA

CITY           SKY/WX    TMP DP  RH WIND       PRES   REMARKS
WASH NATIONAL  PTCLDY    68  61  78 CALM      30.07S
DULLES         PTCLDY    60  58  92 NW3       30.08R
FORT BELVOIR   CLEAR     60  59  96 N1        30.07S
QUANTICO       CLEAR     64  61  90 NW6       30.08R
FREDERICKSBRG* CLOUDY    64  64 100 CALM      30.06R
STAFFORD*      CLOUDY    62  62 100 CALM      30.11R
WARRENTON      MOCLDY    61  61 100 CALM      30.07S FOG
CULPEPER*      MOCLDY    64  63  94 N3        30.08S
MANASSAS*      MOCLDY    63  61  94 CALM      30.08R
LEESBURG*      CLOUDY    61  61 100 CALM      30.08S FOG
WINCHESTER     MOCLDY    61  59  94 CALM      30.08S FOG
FRONT ROYAL*   CLOUDY    61  61 100 CALM      30.08R
LURAY*         CLOUDY    64  64 100 CALM      30.08R
$$

VAZ048-049-060>072-079>083-020400-
CENTRAL AND SOUTH CENTRAL VIRGINIA...AND NORTH CENTRAL NORTH CAROLINA

CITY           SKY/WX    TMP DP  RH WIND       PRES   REMARKS
RICHMOND       CLOUDY    67  62  84 CALM      30.06R
CHESTERFIELD*  CLOUDY   N/A N/A N/A E3        30.07R
PETERSBURG*    CLOUDY    65  64  96 CALM      30.06S
HANOVER        CLOUDY    65  62  90 CALM      30.08R
TAPPAHANNOCK*  PTCLDY    61  59  94 CALM      30.07S
CHARLOTTSVILLE CLOUDY    67  62  84 NE6       30.07R
ORANGE*        CLOUDY    64  61  88 CALM      30.09R
LOUISA*        CLOUDY    66  63  88 CALM      30.06S
FARMVILLE*     CLOUDY    66  66 100 CALM      30.04S
CREWE*         CLOUDY    64  62  94 CALM      30.05S
FORT PICKETT*  CLOUDY    65  64  94 CALM      30.06R
LUNENBURG*     MOCLDY    64  63  95 CALM      30.05S
SOUTH HILL*    PTCLDY    61  61 100 CALM      30.11R FOG
LAWRENCEVILLE* MOCLDY    64  63  98 CALM      30.05S
ROANOKE RAPIDS PTCLDY    59  59 100 CALM      30.05R FOG
RALEIGH        PTCLDY    63  61  93 CALM      30.05R
$$

VAZ088>098-020400-
SOUTHEAST VIRGINIA

CITY           SKY/WX    TMP DP  RH WIND       PRES   REMARKS
NORFOLK        PTCLDY    68  62  81 E3        30.05R
VIRGINIA BEACH MOCLDY    70  62  76 E5        30.04S
NORFOLK NAVAL  PTCLDY    69  63  81 NE6       30.07R
WEST POINT*    CLEAR     61  58  91 CALM      30.08R
NEWPORT NEWS   PTCLDY    66  62  87 CALM      30.05R
LANGLEY AFB    PTCLDY    66  66 100 E2        30.06R
FORT EUSTIS    PTCLDY    64 N/A N/A S1        30.04R
WILLIAMSBURG*  CLEAR     66  64  94 CALM      30.07R
HR EXEC AP*    MOCLDY    63  61  94 CALM      30.07R
FRANKLIN*      CLOUDY    64  64 100 CALM      30.06R
WAKEFIELD      CLOUDY    66  64  93 CALM      30.05S
$$

VAZ020-022-025-037-045-020400-
WEST CENTRAL AND SOUTHWEST VIRGINIA

CITY           SKY/WX    TMP DP  RH WIND       PRES   REMARKS
STAUNTON*      DRIZZLE   65  61  87 E3        30.10S
HOT SPRINGS VA CLEAR     56  39  52 CALM      30.17S
LYNCHBURG      PTCLDY    61  61 100 CALM      30.08R FOG
DANVILLE       CLEAR     63  61  93 CALM      30.05S FOG
SOUTH BOSTON*  NOT AVBL
MARTINSVILLE   CLEAR     60  60 100 CALM      30.09R FOG
ROANOKE        CLEAR     63  60  90 W3        30.09R
BLACKSBURG     CLEAR     57  57 100 CALM      30.13R FOG
DUBLIN*        CLEAR     58  55  89 CALM      30.12R
MARION*        CLEAR     55  54  94 CALM      30.16R FOG
HILLSVILLE*    PTCLDY    60  58  91 S5        30.13S
RICHLANDS*     CLEAR     63  56  80 CALM      30.13R
WISE*          CLEAR     64  54  68 CALM      30.14S
ABINGDON*      CLEAR     61  57  85 CALM      30.10R
$$

MDZ021>025-VAZ099-100-020400-
SOUTHERN MARYLAND AND THE DELMARVA PENINSULA

CITY           SKY/WX    TMP DP  RH WIND       PRES   REMARKS
PATUXENT RIVER PTCLDY    60  58  92 SW3       30.06R
BAY BRIDGE APT   N/A     64  59  82 E5        30.07R
LEONARDTOWN    CLEAR     59  55  88 CALM      30.07S
DOVER          CLEAR     60  59  96 N5        30.05R
GEORGETOWN     CLEAR     61  58  90 NE6       30.07R
EASTON         CLEAR     64  64 100 CALM      30.10
CAMBRIDGE      CLEAR     59  57  94 CALM      30.06R
SALISBURY      CLEAR     62  58  86 CALM      30.06R
OCEAN CITY     MOCLDY    66  60  81 NE6       30.05R
WALLOPS ISLAND CLEAR     63  61  93 N6        30.06R
ACCOMACK*      PTCLDY    59  57  94 NE5       30.05S
$$

NCZ012>017-030>032-020400-
EASTERN NORTH CAROLINA

CITY           SKY/WX    TMP DP  RH WIND       PRES   REMARKS
ELIZABETH CITY CLOUDY    68  64  87 NE7       30.04S
AHOSKIE*       PTCLDY    64  62  90 CALM      30.05S
EDENTON*       PTCLDY    63  62  96 NE3       30.05R
CURRITUCK*     CLOUDY    70  62  75 NE6       30.05S
KILL DEVIL HLS MOCLDY    68  63  83 N3        30.03R
MANTEO         PTCLDY    68  63  84 NE9       30.04R
CAPE HATTERAS  PTCLDY    67  64  90 NE7       30.03R
TARBORO*       MOCLDY    61  60  96 CALM      30.05S FOG
GOLDSBORO      CLEAR     64  64  98 CALM      30.02R
WASHINGTON     PTCLDY    65  63  93 CALM      30.05R
GREENVILLE     FOG       63  63 100 CALM      30.06R VSB 1/2
NEW BERN       CLEAR     65  62  90 CALM      30.04S
WILMINGTON     CLEAR     67  65  93 CALM      30.03R
$$

VAZ048-020400-
ELSEWHERE

CITY           SKY/WX    TMP DP  RH WIND       PRES   REMARKS
HARRISBURG PA  PTCLDY    62  58  86 CALM      30.08R
BALTIMORE      PTCLDY    63  59  87 CALM      30.07R
ANNAPOLIS      PTCLDY    66  61  84 NE5       30.06R
ANDREWS AFB    CLEAR     59  59  99 W1        30.07R
WILMINGTON DE  PTCLDY    64  58  80 CALM      30.09R
PHILADELPHIA   MOCLDY    65  58  78 E7        30.07S
WILDWOOD NJ*   CLEAR     59  55  88 CALM      30.07S
ATLANTIC CITY  CLOUDY    62  59  90 N6        30.06S
HENDERSON NC   CLOUDY    62  60  96 CALM      30.05S FOG
GREENSBORO     MOCLDY    66  63  90 S3        30.05S
ROCKY MOUNT    FOG       62  61  96 CALM      30.04S VSB 1/2
FAYETTEVILLE   CLEAR     67  64  90 CALM      30.03R
CHARLOTTE      PTCLDY    73  64  73 E7        30.05R
$$

VAZ100-020400-
MARINE

STATION/POSITION TIME  TEMP    WIND        PRES    WAVE   SWELL
                       AIR SEA DIR/SP/G            HT/PER HT/PER
                 (UTC) (F)     (DEG/KT/KT) (MB)    (FT/S) (FT/S)
44066 TX TWR #4  0300   65 70   10/ 19/ 23 1014.9R   7/ 7   2/12
CAPE MAY NJ      0200   62                   N/A
LEWES DE         0200   66                   N/A
15NM E FENWICK I 0300   67 70              1016.9R   5/ 7
OCEAN-CITY-INLET 0200   67                   N/A
WACHAPREAGUE VA  0200   64                   N/A
THOMAS POINT MD  0300   67 72  100/ 11/ 12 1018.8R
GOOSES REEF MD   0300   70      60/  4/  6 1018.1F
COVE POINT MD    0200   69                   N/A
BISHOPS HEAD MD  0200   68                   N/A
POTOMAC MD       0300   70     100/  6/  8 1017.0S
CAMBRIDGE MD     0200   66                   N/A
LEWISETTA VA     0200   71                   N/A
STINGRAY PT      0300   70     150/  6/  8   N/A
YORK RVR RNG VA  0200   69                   N/A
YORKTOWN VA      0200   70                   N/A
JAMESTOWN VA     0300   67      80/  2/  2   N/A
DOMINION TERM VA 0200   70                   N/A
CHES BAY BRIDGE  0200   70                   N/A
CHESAPEAKE LGHT  0200   69      50/ 14/ 15 1017.8R
WILLOUBY STN VA  0200   70                   N/A
CAPE HENRY BUOY  0300      73                N/A     4/ 7   2/13
1ST LANDING BUOY 0300   70      70/ 10/ 12 1017.0R
CAPE CHARLES BUO 0300      73                N/A     4/ 7   3/ 7
OFFSHORE WE BUOY 0300      72                N/A     4/ 7   3/ 7
64NM E OF VA BCH 0300   69 71   10/ 14/ 16 1016.4R   4/ 7   3/ 7
DUCK PIER NC     0200   70                   N/A
44100 DUCK FRF   0300      72                N/A     4/ 7   2/13
44056 DUCK FRF   0300                        N/A     4/ 6
OREGON INLET NC  0200   69                   N/A
HATTERAS NC      0200   70                   N/A
DIAMOND SHLS NC  0300   71      10/ 14/ 16 1016.4R   3/12   2/12
CAPE LOOKOUT NC  0200   73      50/ 10/ 12 1016.6R
$$



USA.gov is the U.S. government's official web portal to all federal, state and local government web resources and services.